[[{"header":{"parameterUnit":"m.s-1","parameterCategory":1,"la1":30.2991,"la2":30.254,"lo1":-89.0895,"lo2":-89.0444,"dy":0.0017,"dx":0.0017,"nx":28,"ny":28,"refTime":"2025-08-14T21:00:00:Z","depth":0,"parameterNumber":2,"parameterNumberName":"U-component_of_WINDS"},"data":[0,0,0,0,0,0,0,0,0,0,0,0,0,0,0,0,0,0,0,0,0,0,0,0,0,0,0,0,0,0,0,0,0,0,0,0,0,0,0,0,0,0,0,0,0,0,0,0,0,0,0,0,0,0,0,0,0,0,1.4127,1.4127,0,1.4138,1.4138,1.4138,1.4188,1.4189,1.419,1.4191,1.4201,1.42,1.4199,0,0,0,0,0,0,0,0,0,0,0,0,0,1.4151,1.415,1.4127,1.4127,1.4128,1.4138,1.4138,1.4138,1.4188,1.4189,1.4191,1.4192,1.4201,1.42,1.4199,0,0,0,0,0,0,0,0,0,0,0,0,0,1.4149,1.415,1.4127,1.4154,1.4156,1.4138,1.4138,1.4138,1.4187,1.4189,1.4191,1.4193,1.4201,1.42,1.4199,1.4155,0,0,1.4195,1.4194,0,0,0,0,0,0,0,0,1.4149,1.4148,1.415,1.4152,1.4155,1.4163,1.4149,1.4144,1.4187,1.4175,1.4191,1.4194,1.4187,1.4187,1.4185,1.4155,1.4156,1.4195,1.4194,1.4193,1.4193,0,0,0,0,0,0,0,1.4149,1.4147,1.4131,1.415,1.4153,1.4165,1.4167,1.4148,1.4171,1.4177,1.418,1.4181,1.4188,1.4186,1.4185,1.4156,1.4195,1.4193,1.4193,1.4192,1.4094,1.4092,0,0,0,0,0,0,1.4145,1.4147,1.4131,1.4132,1.4156,1.4163,1.4165,1.4159,1.4171,1.4175,1.4179,1.4183,1.4187,1.4187,1.4186,1.4137,1.4193,1.4192,1.4191,1.4095,1.4093,1.4091,0,0,0,0,0,0,1.4146,1.4143,1.4131,1.414,1.414,1.4161,1.4153,1.4158,1.4156,1.4173,1.4178,1.4173,1.4188,1.4188,1.4163,1.4138,1.4191,1.419,1.4098,1.4095,1.4092,1.4038,0,0,0,0,0,0,1.4146,1.4143,1.4127,1.414,1.4139,1.4107,1.4152,1.4157,1.4153,1.4158,1.4168,1.4171,1.419,1.4164,1.4161,1.4137,1.4189,1.41,1.4096,1.4093,1.4042,1.4034,1.4027,0,0,0,0,0,1.4147,1.411,1.4126,1.4123,1.4119,1.4106,1.4105,1.4128,1.4151,1.4135,1.4147,1.4171,1.4141,1.4161,1.4159,1.4133,1.4102,1.4097,1.4093,1.4046,1.4035,1.4027,0,0,0,0,0,0,1.4092,1.4112,1.413,1.4096,1.4099,1.4114,1.4094,1.4116,1.4112,1.4116,1.4144,1.4146,1.4117,1.4123,1.4145,1.4093,1.4126,1.4121,1.409,1.4081,1.4073,1.4073,1.4188,0,0,0,0,0,1.4077,1.4065,1.4083,1.4051,1.4052,1.4073,1.4068,1.4085,1.4089,1.409,1.41,1.4102,1.4094,1.4088,1.408,1.4043,1.4047,1.4025,1.4017,1.401,1.4006,1.3989,1.3979,1.4078,1.4078,1.4078,0,0,1.4044,1.4053,1.4044,1.4041,1.4045,1.4032,1.4073,1.4058,1.4049,1.4088,1.4066,1.4073,1.4078,1.4047,1.4034,1.4051,1.398,1.4005,1.4,1.3999,1.3983,1.3974,1.3966,1.4075,1.4075,1.4076,0,0,1.3978,1.3983,1.3959,1.3963,1.3969,1.3984,1.3978,1.399,1.3997,1.3975,1.4005,1.3994,1.3978,1.3981,1.398,1.3917,1.394,1.3914,1.3874,1.3857,1.3849,1.3842,1.3821,1.3813,1.391,1.3909,1.3909,0,1.3936,1.3919,1.3944,1.3927,1.3925,1.3961,1.3937,1.3939,1.3942,1.394,1.3959,1.3942,1.3947,1.3918,1.3903,1.3901,1.3896,1.3913,1.3848,1.3842,1.3836,1.3816,1.3808,1.3906,1.3907,1.3907,1.3907,0,1.3868,1.3855,1.3835,1.3838,1.3834,1.3814,1.3836,1.3829,1.3847,1.3859,1.3837,1.3845,1.3842,1.3836,1.3852,1.381,1.3821,1.3843,1.3877,1.3823,1.3805,1.3797,1.3902,1.3903,1.3904,1.3905,0,0,1.3768,1.3787,1.3779,1.3782,1.3792,1.3783,1.3764,1.3761,1.3755,1.3756,1.3742,1.3729,1.3751,1.375,1.3767,1.3752,1.3703,1.3777,1.3777,1.3764,1.3659,1.3643,1.3634,1.3719,1.3717,1.3716,1.366,0,1.3706,1.3676,1.3699,1.3665,1.3654,1.3689,1.3673,1.3678,1.3689,1.3682,1.3694,1.3685,1.3713,1.3713,1.3699,1.3712,1.3683,1.3716,1.3706,1.3706,1.3705,1.3624,1.3607,1.3553,1.3652,1.3651,1.365,0,1.363,1.3629,1.3595,1.3609,1.3606,1.3591,1.3591,1.3583,1.359,1.3599,1.3599,1.3621,1.3604,1.3637,1.3615,1.3637,1.3635,1.364,1.3639,1.364,1.3675,1.3624,1.3536,1.3529,1.3639,1.364,1.3641,0,1.3562,1.3553,1.3531,1.3533,1.3548,1.3538,1.3543,1.3552,1.3549,1.3549,1.3548,1.3545,1.3544,1.3542,1.3563,1.3584,1.3539,1.3573,1.3547,1.3547,1.3537,1.3537,1.3448,1.3533,1.3533,1.3533,1.3533,0,1.3492,1.347,1.3502,1.3488,1.3465,1.3492,1.3468,1.3477,1.3484,1.3474,1.3503,1.3493,1.3521,1.3513,1.3529,1.351,1.3509,1.3517,1.3521,1.3515,1.3514,1.3514,1.3519,1.3531,1.3531,1.3532,1.3532,0,1.3413,1.3433,1.3412,1.343,1.3433,1.3415,1.343,1.3419,1.3433,1.342,1.3418,1.3439,1.3433,1.3453,1.3449,1.346,1.3432,1.3442,1.343,1.3434,1.3408,1.3411,1.3317,1.3307,1.3396,1.3395,1.3394,0,1.3367,1.3351,1.3367,1.3363,1.3368,1.336,1.3358,1.3383,1.338,1.3387,1.3375,1.3371,1.3369,1.3357,1.3372,1.3369,1.3381,1.3348,1.338,1.3375,1.3382,1.3383,1.3383,1.3342,1.334,1.334,1.3339,0,1.3285,1.3296,1.3292,1.3292,1.3289,1.329,1.3293,1.3288,1.3315,1.331,1.3304,1.3302,1.3299,1.3295,1.3296,1.3303,1.3326,1.3328,1.3323,1.3316,1.3311,1.3315,1.3414,1.3331,1.3331,1.3332,1.3333,1.3333,1.3222,1.321,1.322,1.3215,1.3221,1.3223,1.3214,1.3227,1.3223,1.3223,1.3238,1.3229,1.3237,1.3242,1.3246,1.324,1.3255,1.3246,1.3244,1.3242,1.3238,1.3311,1.324,1.324,1.324,1.324,1.324,0,1.3143,1.3151,1.3146,1.315,1.3147,1.3169,1.3174,1.317,1.3162,1.3168,1.3166,1.3159,1.3156,1.3171,1.317,1.3162,1.3173,1.3161,1.3163,1.3164,1.3224,1.323,1.3153,1.3153,1.3153,1.3153,1.3153,1.3153,1.3101,1.3083,1.3095,1.308,1.3089,1.3081,1.3082,1.3085,1.309,1.3082,1.308,1.309,1.31,1.31,1.3098,1.3103,1.3102,1.3087,1.3095,1.3151,1.316,1.3168,1.3174,1.3086,1.3086,1.3037,1.3036,1.3036]},{"header":{"parameterUnit":"m.s-1","parameterCategory":1,"la1":30.2991,"la2":30.254,"lo1":-89.0895,"lo2":-89.0444,"dy":0.0017,"dx":0.0017,"nx":28,"ny":28,"refTime":"2025-08-14T21:00:00:Z","depth":0,"parameterNumber":3,"parameterNumberName":"V-component_of_WINDS"},"data":[0,0,0,0,0,0,0,0,0,0,0,0,0,0,0,0,0,0,0,0,0,0,0,0,0,0,0,0,0,0,0,0,0,0,0,0,0,0,0,0,0,0,0,0,0,0,0,0,0,0,0,0,0,0,0,0,0,0,0.2373,0.2373,0,0.2343,0.2343,0.2343,0.2335,0.2335,0.2335,0.2335,0.2305,0.2304,0.2303,0,0,0,0,0,0,0,0,0,0,0,0,0,0.2423,0.2423,0.2373,0.2373,0.2372,0.2343,0.2343,0.2342,0.2335,0.2335,0.2335,0.2335,0.2305,0.2304,0.2303,0,0,0,0,0,0,0,0,0,0,0,0,0,0.2398,0.2422,0.2373,0.2365,0.2364,0.2343,0.2343,0.2342,0.2334,0.2335,0.2335,0.2335,0.2305,0.2304,0.2302,0.2288,0,0,0.2298,0.2297,0,0,0,0,0,0,0,0,0.24,0.2397,0.2367,0.2366,0.2364,0.2343,0.2349,0.2324,0.2334,0.2346,0.2335,0.2335,0.2317,0.2315,0.2308,0.2287,0.2285,0.2298,0.2297,0.2296,0.2296,0,0,0,0,0,0,0,0.2402,0.2398,0.2361,0.2366,0.2365,0.2363,0.2359,0.2345,0.233,0.2345,0.2344,0.2341,0.2317,0.231,0.2308,0.2285,0.2298,0.2296,0.2296,0.2295,0.2249,0.2249,0,0,0,0,0,0,0.2405,0.2399,0.2362,0.236,0.2383,0.2362,0.2358,0.235,0.233,0.2328,0.234,0.234,0.2312,0.2309,0.2307,0.2288,0.2296,0.2295,0.2294,0.2249,0.2249,0.2248,0,0,0,0,0,0,0.2406,0.2401,0.2364,0.238,0.2375,0.236,0.2351,0.2349,0.2342,0.2327,0.2325,0.2336,0.2312,0.2309,0.2292,0.2287,0.2294,0.2293,0.225,0.2249,0.2249,0.2251,0,0,0,0,0,0,0.2407,0.2402,0.2396,0.238,0.2374,0.235,0.2351,0.2348,0.234,0.2339,0.2323,0.232,0.2312,0.2295,0.2291,0.2285,0.2292,0.225,0.2249,0.2249,0.2251,0.225,0.225,0,0,0,0,0,0.2409,0.2398,0.2396,0.2392,0.2367,0.235,0.2346,0.2338,0.2339,0.2333,0.2324,0.2321,0.2288,0.2293,0.2289,0.2282,0.225,0.225,0.2249,0.2251,0.225,0.225,0,0,0,0,0,0,0.2415,0.2396,0.2393,0.2377,0.2365,0.2348,0.2341,0.2337,0.2324,0.2325,0.2314,0.2311,0.2295,0.2287,0.2293,0.2267,0.2269,0.2268,0.2273,0.2272,0.2271,0.2273,0.229,0,0,0,0,0,0.2414,0.2402,0.2386,0.2373,0.2367,0.2355,0.2347,0.2342,0.2329,0.2324,0.2313,0.2301,0.2288,0.2279,0.2267,0.225,0.2246,0.2243,0.2243,0.2242,0.2241,0.2231,0.2229,0.2246,0.2246,0.2246,0,0,0.2413,0.2401,0.2394,0.2374,0.2364,0.2352,0.2351,0.2338,0.2328,0.2322,0.2306,0.2297,0.2283,0.2266,0.2259,0.2259,0.2235,0.2241,0.2241,0.224,0.223,0.2228,0.2227,0.2245,0.2245,0.2246,0,0,0.2403,0.2394,0.2381,0.2371,0.2356,0.2348,0.2345,0.2329,0.2323,0.2307,0.2301,0.229,0.2268,0.2258,0.225,0.2236,0.2233,0.2233,0.2229,0.2219,0.2218,0.2216,0.2211,0.2209,0.2231,0.2231,0.2231,0,0.2403,0.2384,0.2375,0.2362,0.2353,0.2347,0.2334,0.2325,0.2307,0.2301,0.2302,0.2274,0.2264,0.2244,0.2241,0.2235,0.2231,0.2234,0.2219,0.2217,0.2216,0.2211,0.2209,0.2231,0.2231,0.2231,0.2231,0,0.2385,0.2371,0.2363,0.2345,0.2336,0.2323,0.2312,0.2303,0.2298,0.229,0.2273,0.2261,0.2245,0.2241,0.2236,0.222,0.2221,0.2221,0.2223,0.2215,0.2209,0.2207,0.2231,0.2231,0.2231,0.2231,0,0,0.2378,0.2355,0.2352,0.2344,0.2326,0.2316,0.2303,0.2287,0.228,0.2267,0.2256,0.2237,0.2236,0.2227,0.2221,0.2213,0.2202,0.2213,0.2213,0.2211,0.2184,0.2184,0.2181,0.22,0.22,0.2199,0.2185,0,0.2366,0.2342,0.2333,0.2313,0.2301,0.2294,0.2283,0.2271,0.2263,0.2251,0.2242,0.2229,0.2229,0.2224,0.2215,0.2205,0.2197,0.2206,0.2189,0.2188,0.2192,0.2179,0.2179,0.2165,0.2183,0.2182,0.2182,0,0.2348,0.2335,0.2314,0.2298,0.2292,0.2282,0.2267,0.2256,0.2242,0.2237,0.2227,0.2221,0.2207,0.221,0.219,0.2197,0.219,0.2184,0.2183,0.218,0.2184,0.2175,0.2161,0.2159,0.2179,0.2179,0.2179,0,0.2345,0.2322,0.2306,0.2299,0.228,0.2273,0.2265,0.2251,0.2242,0.2229,0.2223,0.2209,0.2201,0.219,0.218,0.2184,0.2161,0.2164,0.2156,0.2156,0.2151,0.2151,0.2134,0.2147,0.2147,0.2147,0.2147,0,0.2331,0.2319,0.2304,0.2294,0.2279,0.227,0.2255,0.2247,0.2235,0.2223,0.2217,0.2206,0.2195,0.2183,0.2176,0.216,0.2156,0.2151,0.2149,0.2151,0.2152,0.2146,0.2146,0.2147,0.2147,0.2147,0.2147,0,0.2324,0.2314,0.2296,0.228,0.2275,0.2265,0.2251,0.2241,0.2233,0.2218,0.2214,0.2201,0.2186,0.2176,0.2157,0.2152,0.2135,0.2133,0.2139,0.2138,0.213,0.2131,0.2108,0.2105,0.2121,0.2121,0.2121,0,0.2316,0.2306,0.2288,0.228,0.2272,0.2258,0.2249,0.2239,0.223,0.2214,0.2206,0.219,0.2177,0.2154,0.2143,0.2128,0.2126,0.2119,0.2124,0.2126,0.2125,0.2125,0.2124,0.2118,0.2118,0.2118,0.2118,0,0.2303,0.2298,0.2285,0.227,0.2259,0.2247,0.2235,0.2228,0.2216,0.2206,0.219,0.218,0.2161,0.2145,0.213,0.2121,0.2117,0.2116,0.2114,0.2115,0.2119,0.2116,0.2136,0.2117,0.2117,0.2117,0.2117,0.2117,0.2294,0.2285,0.2271,0.2256,0.2246,0.2234,0.2224,0.2214,0.2201,0.2184,0.218,0.2163,0.215,0.2128,0.2119,0.2106,0.2107,0.2103,0.2102,0.2101,0.21,0.2121,0.2104,0.2104,0.2104,0.2104,0.2104,0,0.228,0.2271,0.2257,0.224,0.2228,0.2226,0.2212,0.2202,0.2188,0.2176,0.2163,0.2145,0.213,0.2118,0.2102,0.2094,0.2092,0.209,0.2091,0.2088,0.2101,0.2105,0.2093,0.2093,0.2093,0.2093,0.2093,0.2093,0.2271,0.2254,0.2248,0.2226,0.2217,0.2201,0.2193,0.2182,0.2172,0.2152,0.214,0.2132,0.2119,0.2102,0.2089,0.2085,0.208,0.2078,0.2074,0.2086,0.2088,0.2089,0.2092,0.2077,0.2077,0.2063,0.2062,0.2062]}]]